BCO18L EDHI-EDDP

Flight info

Callsign BCO18L
Flight time 0h 39m
Altitude 23000
Route AMLUH1W AMLUH M852 POVEL Z94 KENIG T959 KOJEC KOJEC1V
Aircraft A337/H-SDE3GHIJ2J3J5M1RVWXY/LB2D1

Departure

Time 2026-04-26 16:23
Airport Hamburg-Finkenwerder Airport (EDHI)

Arrival

Time 2026-04-26 17:02
Airport Leipzig/Halle Airport (EDDP)
Time Latitude Longitude Altitude Speed Heading
2026-04-26 16:01 53.53615 9.82876 31 ft 0 kts 54°
2026-04-26 16:10 53.53612 9.82870 31 ft 3 kts 54°
2026-04-26 16:10 53.53597 9.82834 31 ft 4 kts 59°
2026-04-26 16:11 53.53586 9.82795 31 ft 4 kts 69°
2026-04-26 16:11 53.53585 9.82764 31 ft 4 kts 110°
2026-04-26 16:11 53.53600 9.82733 31 ft 4 kts 155°
2026-04-26 16:11 53.53617 9.82717 31 ft 1 kts 139°
2026-04-26 16:12 53.53620 9.82713 31 ft 0 kts 139°
2026-04-26 16:14 53.53620 9.82714 31 ft 0 kts 139°
2026-04-26 16:14 53.53594 9.82751 31 ft 9 kts 140°
2026-04-26 16:15 53.53524 9.82840 31 ft 14 kts 143°
2026-04-26 16:15 53.53447 9.82943 31 ft 15 kts 141°
2026-04-26 16:15 53.53376 9.83041 31 ft 11 kts 140°
2026-04-26 16:16 53.53341 9.83101 28 ft 1 kts 128°
2026-04-26 16:16 53.53338 9.83109 28 ft 2 kts 126°
2026-04-26 16:16 53.53338 9.83110 28 ft 0 kts 125°
2026-04-26 16:16 53.53348 9.83190 31 ft 13 kts 50°
2026-04-26 16:17 53.53410 9.83311 31 ft 15 kts 49°
2026-04-26 16:17 53.53479 9.83448 31 ft 17 kts 50°
2026-04-26 16:17 53.53561 9.83619 26 ft 22 kts 51°
2026-04-26 16:17 53.53665 9.83837 25 ft 24 kts 51°
2026-04-26 16:18 53.53768 9.84052 32 ft 23 kts 52°
2026-04-26 16:18 53.53966 9.84474 27 ft 25 kts 51°
2026-04-26 16:19 53.54215 9.84956 28 ft 20 kts 19°
2026-04-26 16:19 53.54294 9.85036 29 ft 12 kts 63°
2026-04-26 16:19 53.54261 9.85090 30 ft 3 kts 210°
2026-04-26 16:20 53.54252 9.85075 30 ft 0 kts 226°
2026-04-26 16:20 53.54241 9.85054 30 ft 0 kts 230°
2026-04-26 16:22 53.54209 9.84989 28 ft 25 kts 230°
2026-04-26 16:22 53.53959 9.84461 27 ft 90 kts 232°
2026-04-26 16:22 53.53443 9.83365 28 ft 147 kts 231°
2026-04-26 16:23 53.52721 9.81851 311 ft 179 kts 231°
2026-04-26 16:23 53.51908 9.80134 958 ft 195 kts 233°
2026-04-26 16:23 53.51095 9.78200 1673 ft 208 kts 232°
2026-04-26 16:23 53.50170 9.76260 2452 ft 216 kts 233°
2026-04-26 16:24 53.49192 9.74300 3106 ft 222 kts 223°
2026-04-26 16:24 53.47852 9.72977 3659 ft 228 kts 196°
2026-04-26 16:24 53.46271 9.72928 4254 ft 231 kts 169°
2026-04-26 16:24 53.44726 9.73647 4868 ft 236 kts 162°
2026-04-26 16:25 53.43157 9.74521 5581 ft 238 kts 162°
2026-04-26 16:25 53.41622 9.75590 6325 ft 241 kts 148°
2026-04-26 16:25 53.40462 9.77590 7017 ft 245 kts 117°
2026-04-26 16:25 53.40073 9.80436 7377 ft 263 kts 90°
2026-04-26 16:26 53.40206 9.83568 7813 ft 275 kts 83°
2026-04-26 16:26 53.40355 9.85741 8225 ft 279 kts 83°
2026-04-26 16:26 53.40644 9.90067 9090 ft 284 kts 84°
2026-04-26 16:26 53.40847 9.93388 9753 ft 287 kts 84°
2026-04-26 16:27 53.41041 9.96752 10286 ft 295 kts 84°
2026-04-26 16:27 53.41233 10.00280 10567 ft 312 kts 86°
2026-04-26 16:27 53.41116 10.03970 10898 ft 324 kts 102°
2026-04-26 16:27 53.40287 10.07496 11401 ft 329 kts 122°
2026-04-26 16:28 53.38878 10.10524 11961 ft 332 kts 133°
2026-04-26 16:28 53.37198 10.13190 12532 ft 334 kts 140°
2026-04-26 16:28 53.35383 10.15650 13359 ft 337 kts 142°
2026-04-26 16:28 53.33504 10.18049 13564 ft 353 kts 144°
2026-04-26 16:29 53.31511 10.20577 13842 ft 364 kts 143°
2026-04-26 16:29 53.29475 10.23209 14407 ft 365 kts 143°
2026-04-26 16:29 53.27508 10.25811 14970 ft 366 kts 142°
2026-04-26 16:29 53.25518 10.28485 15479 ft 369 kts 142°
2026-04-26 16:30 53.23515 10.31205 15945 ft 373 kts 142°
2026-04-26 16:30 53.21494 10.33961 16426 ft 376 kts 142°
2026-04-26 16:30 53.19464 10.36731 16915 ft 378 kts 142°
2026-04-26 16:30 53.17418 10.39519 17401 ft 381 kts 142°
2026-04-26 16:31 53.15356 10.42321 17875 ft 384 kts 143°
2026-04-26 16:31 53.13147 10.44807 18325 ft 384 kts 155°
2026-04-26 16:31 53.10688 10.46549 18765 ft 384 kts 163°
2026-04-26 16:31 53.08145 10.47914 19165 ft 385 kts 166°
2026-04-26 16:32 53.05573 10.49231 19566 ft 388 kts 166°
2026-04-26 16:32 53.03859 10.50100 19831 ft 389 kts 166°
2026-04-26 16:32 53.00383 10.51833 20343 ft 392 kts 167°
2026-04-26 16:32 52.97756 10.53119 20727 ft 394 kts 167°
2026-04-26 16:33 52.95111 10.54401 21093 ft 396 kts 167°
2026-04-26 16:33 52.92457 10.55679 21465 ft 398 kts 167°
2026-04-26 16:33 52.89785 10.56961 21825 ft 401 kts 167°
2026-04-26 16:33 52.87099 10.58249 22186 ft 403 kts 167°
2026-04-26 16:34 52.84404 10.59540 22542 ft 405 kts 167°
2026-04-26 16:34 52.81690 10.60839 22874 ft 407 kts 167°
2026-04-26 16:34 52.78958 10.62146 23204 ft 409 kts 167°
2026-04-26 16:34 52.76220 10.63455 23276 ft 409 kts 167°
2026-04-26 16:35 52.73487 10.64761 23286 ft 409 kts 167°
2026-04-26 16:35 52.70798 10.66045 23285 ft 408 kts 167°
2026-04-26 16:35 52.68065 10.67347 23284 ft 408 kts 167°
2026-04-26 16:35 52.65335 10.68646 23285 ft 408 kts 167°
2026-04-26 16:36 52.62605 10.69942 23283 ft 409 kts 167°
2026-04-26 16:36 52.59874 10.71238 23284 ft 409 kts 167°
2026-04-26 16:36 52.57140 10.72533 23284 ft 409 kts 167°
2026-04-26 16:36 52.54410 10.73824 23287 ft 409 kts 167°
2026-04-26 16:37 52.51674 10.75117 23269 ft 409 kts 167°
2026-04-26 16:37 52.48944 10.76405 23286 ft 407 kts 167°
2026-04-26 16:37 52.46221 10.77689 23288 ft 407 kts 167°
2026-04-26 16:37 52.44420 10.78537 23289 ft 406 kts 167°
2026-04-26 16:38 52.40783 10.80246 23291 ft 406 kts 167°
2026-04-26 16:38 52.38063 10.81522 23289 ft 406 kts 167°
2026-04-26 16:38 52.35342 10.82798 23290 ft 406 kts 167°
2026-04-26 16:38 52.32622 10.84071 23289 ft 406 kts 167°
2026-04-26 16:39 52.29905 10.85342 23289 ft 406 kts 167°
2026-04-26 16:39 52.27187 10.86611 23288 ft 406 kts 167°
2026-04-26 16:39 52.24467 10.87880 23277 ft 406 kts 167°
2026-04-26 16:39 52.21757 10.89143 23287 ft 405 kts 167°
2026-04-26 16:40 52.19048 10.90403 23290 ft 404 kts 168°
2026-04-26 16:40 52.16348 10.91658 23287 ft 403 kts 168°
2026-04-26 16:40 52.13684 10.92895 23288 ft 403 kts 168°
2026-04-26 16:40 52.10990 10.94143 23286 ft 402 kts 168°
2026-04-26 16:41 52.08298 10.95389 23280 ft 402 kts 168°
2026-04-26 16:41 52.05600 10.96636 23279 ft 402 kts 168°
2026-04-26 16:41 52.02899 10.97883 23277 ft 402 kts 168°
2026-04-26 16:41 52.00205 10.99124 23267 ft 402 kts 167°
2026-04-26 16:42 51.97510 11.00366 23280 ft 402 kts 167°
2026-04-26 16:42 51.94824 11.01602 23283 ft 401 kts 167°
2026-04-26 16:42 51.92134 11.02839 23284 ft 401 kts 167°
2026-04-26 16:42 51.89450 11.04070 23278 ft 401 kts 167°
2026-04-26 16:43 51.86805 11.05549 23287 ft 404 kts 159°
2026-04-26 16:43 51.84248 11.07453 23283 ft 405 kts 157°
2026-04-26 16:43 51.81727 11.09489 23281 ft 406 kts 156°
2026-04-26 16:43 51.79254 11.11580 23281 ft 406 kts 155°
2026-04-26 16:44 51.76761 11.13733 23281 ft 406 kts 155°
2026-04-26 16:44 51.74272 11.15890 23274 ft 406 kts 154°
2026-04-26 16:44 51.71782 11.18043 23280 ft 406 kts 154°
2026-04-26 16:44 51.69286 11.20189 23091 ft 405 kts 155°
2026-04-26 16:45 51.66796 11.22318 22816 ft 405 kts 155°
2026-04-26 16:45 51.64316 11.24451 22536 ft 405 kts 152°
2026-04-26 16:45 51.62056 11.27165 22289 ft 407 kts 137°
2026-04-26 16:45 51.60211 11.30581 22032 ft 401 kts 129°
2026-04-26 16:46 51.58555 11.34142 21646 ft 393 kts 127°
2026-04-26 16:46 51.56968 11.37673 21188 ft 387 kts 127°
2026-04-26 16:46 51.55426 11.41127 20755 ft 382 kts 127°
2026-04-26 16:46 51.53888 11.44574 20318 ft 377 kts 127°
2026-04-26 16:47 51.52453 11.48075 19867 ft 374 kts 118°
2026-04-26 16:47 51.51604 11.51987 19441 ft 371 kts 97°
2026-04-26 16:47 51.51522 11.56101 19003 ft 368 kts 85°
2026-04-26 16:47 51.51717 11.60190 18568 ft 366 kts 83°
2026-04-26 16:48 51.51949 11.64247 18097 ft 364 kts 82°
2026-04-26 16:48 51.52175 11.68277 17652 ft 361 kts 83°
2026-04-26 16:48 51.52320 11.70934 17375 ft 359 kts 83°
2026-04-26 16:48 51.52531 11.74916 16948 ft 357 kts 83°
2026-04-26 16:49 51.52735 11.78876 16520 ft 354 kts 83°
2026-04-26 16:49 51.52935 11.82802 16094 ft 351 kts 83°
2026-04-26 16:49 51.53131 11.86692 15676 ft 349 kts 83°
2026-04-26 16:49 51.53324 11.90572 15254 ft 346 kts 83°
2026-04-26 16:50 51.53514 11.94424 14846 ft 344 kts 83°
2026-04-26 16:50 51.53701 11.98247 14415 ft 341 kts 83°
2026-04-26 16:50 51.53886 12.02034 13995 ft 339 kts 83°
2026-04-26 16:50 51.54067 12.05788 13551 ft 336 kts 83°
2026-04-26 16:51 51.54243 12.09473 13151 ft 334 kts 83°
2026-04-26 16:51 51.54419 12.13173 12746 ft 331 kts 83°
2026-04-26 16:51 51.54592 12.16834 12328 ft 327 kts 83°
2026-04-26 16:51 51.54763 12.20465 11934 ft 325 kts 83°
2026-04-26 16:52 51.54931 12.24072 11535 ft 322 kts 83°
2026-04-26 16:52 51.55042 12.26450 11271 ft 321 kts 83°
2026-04-26 16:52 51.55262 12.31214 10739 ft 318 kts 83°
2026-04-26 16:52 51.55419 12.34689 10574 ft 304 kts 83°
2026-04-26 16:53 51.55567 12.37990 10484 ft 290 kts 83°
2026-04-26 16:53 51.55709 12.41161 10370 ft 279 kts 83°
2026-04-26 16:53 51.55849 12.44255 10219 ft 278 kts 83°
2026-04-26 16:53 51.55989 12.47338 9737 ft 281 kts 83°
2026-04-26 16:54 51.56130 12.50499 8952 ft 287 kts 84°
2026-04-26 16:54 51.56272 12.53703 8289 ft 287 kts 84°
2026-04-26 16:54 51.56412 12.56895 7692 ft 285 kts 84°
2026-04-26 16:54 51.56549 12.60055 7151 ft 282 kts 84°
2026-04-26 16:55 51.56600 12.63180 6589 ft 279 kts 94°
2026-04-26 16:55 51.56159 12.66190 6034 ft 277 kts 113°
2026-04-26 16:55 51.55068 12.68687 5461 ft 273 kts 138°
2026-04-26 16:55 51.53414 12.70131 4954 ft 272 kts 166°
2026-04-26 16:56 51.49907 12.68792 4054 ft 265 kts 220°
2026-04-26 16:56 51.48590 12.66750 3644 ft 262 kts 227°
2026-04-26 16:56 51.47354 12.64601 3223 ft 261 kts 228°
2026-04-26 16:57 51.46129 12.62471 3008 ft 260 kts 227°
2026-04-26 16:57 51.44893 12.60359 2980 ft 256 kts 227°
2026-04-26 16:57 51.43033 12.56114 2982 ft 214 kts 253°
2026-04-26 16:58 51.42739 12.53899 2989 ft 193 kts 265°
2026-04-26 16:58 51.42667 12.52526 2979 ft 180 kts 267°
2026-04-26 16:58 51.42463 12.48098 2979 ft 165 kts 267°
2026-04-26 16:59 51.42372 12.46350 2992 ft 154 kts 267°
2026-04-26 16:59 51.42197 12.42808 2693 ft 162 kts 268°
2026-04-26 17:00 51.42033 12.39244 2218 ft 158 kts 267°
2026-04-26 17:00 51.41870 12.35728 1783 ft 159 kts 266°
2026-04-26 17:00 51.41788 12.33967 1567 ft 158 kts 267°
2026-04-26 17:01 51.41708 12.32230 1367 ft 158 kts 267°
2026-04-26 17:01 51.41626 12.30473 1130 ft 158 kts 267°
2026-04-26 17:01 51.41540 12.28720 900 ft 157 kts 267°
2026-04-26 17:01 51.41456 12.26981 688 ft 156 kts 267°
2026-04-26 17:02 51.41382 12.25256 503 ft 153 kts 266°
2026-04-26 17:02 51.41310 12.23698 472 ft 118 kts 266°
2026-04-26 17:02 51.41266 12.22710 465 ft 60 kts 266°
2026-04-26 17:02 51.41243 12.22238 456 ft 38 kts 265°
2026-04-26 17:03 51.41194 12.21844 458 ft 35 kts 246°
2026-04-26 17:03 51.41081 12.21624 458 ft 12 kts 171°
2026-04-26 17:03 51.41050 12.21720 460 ft 10 kts 93°
2026-04-26 17:03 51.41054 12.21858 461 ft 15 kts 85°
2026-04-26 17:04 51.41063 12.22057 457 ft 20 kts 85°
2026-04-26 17:04 51.41075 12.22297 456 ft 25 kts 85°
2026-04-26 17:04 51.41094 12.22677 459 ft 39 kts 85°
2026-04-26 17:04 51.41112 12.23094 470 ft 36 kts 86°
2026-04-26 17:05 51.41081 12.23278 471 ft 10 kts 167°
2026-04-26 17:05 51.41012 12.23282 468 ft 10 kts 179°
2026-04-26 17:05 51.40933 12.23284 470 ft 13 kts 176°
2026-04-26 17:05 51.40895 12.23308 466 ft 4 kts 120°
2026-04-26 17:06 51.40889 12.23353 468 ft 4 kts 98°
2026-04-26 17:06 51.40890 12.23390 468 ft 2 kts 85°
2026-04-26 17:06 51.40891 12.23400 468 ft 0 kts 85°
2026-04-26 17:06 51.40891 12.23402 468 ft 0 kts 85°